2019-032F (44315 NORAD) Tracking and Keplerian Element Data

This shows tracking and keplerian element data for the satellite.

Feedback or suggestion? Click here.




ElementValue
Catalog44315
Name2019-032F
Epoch Orbit449
Epoch Day186.16453359
Epoch Year2019
RAAN143.301
Inclination44.983
Eccentricity0.0015634
Argument of Perigee113.9197
Mean Anonmoly246.3309
Mean Motion15.01050111
Decay Rate3.7E-07
L11 44315U 19032F 19186.16453359 .00000037 00000-0 20735-4 0 9994
L22 44315 44.9830 143.3010 0015634 113.9197 246.3309 15.01050111 4498

Live tracking and technical data element details for 2019-032F (NORAD 44315). 2019-032F can be tracked NOW for your location showing map with azimuth and elevation plus other details from your city location.

Track the satellite on the map from your city or location and see movement details for azimuth, elevation, latitude, longitude, range, height, and movement on the map or in text.







IsCatalogInMostPopularTable: catalog: 44315, numindb: 10
Update: records affected: 1



GetName: 44315 2019-032F

Hit Count: updated at: Fri, 19 Jul 2019 23:57:13 GMT